Torna al catalogo

ARIANE 5 R/B

AttivoGTO
NORAD 45248·ROCKET BODY·🇫🇷 France

Lanciato Feb 18, 2020 da Guiana Space Centre

Loading…

TLE

ObsoletoSource: Space-Track

Epoca: Sep 13, 2026, 13:07 UTC

1 45248U 20013D   26256.54716707  .00000569  00000-0  35320-3 0  9993
2 45248   6.0324 351.9682 7140579  71.7519 349.1635  2.44443094 56676

Traccia ARIANE 5 R/B in tempo reale con AllMySat

Download on the App Store